This is the latest recevied weather packets stored in our database for station/object F6DEV-13. If no packets are shown the sender has not sent any weather packets the latest 10 day(s).
| Time | Temp. | Humidity | Pressure | Rain* | Wind** | Luminosity | Snow |
|---|---|---|---|---|---|---|---|
| 1777638226 | 21.11° C | 56% | 1018 hPa | 0 mm | - | - | - |
| 1777637926 | 21.67° C | 55% | 1018 hPa | 0 mm | - | - | - |
| 1777637626 | 21.67° C | 58% | 1018 hPa | 0 mm | - | - | - |
| 1777637326 | 21.11° C | 57% | 1018 hPa | 0 mm | - | - | - |
| 1777637047 | 21.11° C | 59% | 1018 hPa | 0 mm | - | - | - |
| 1777636996 | 21.11° C | 59% | 1018 hPa | 0 mm | - | - | - |
| 1777636696 | 21.11° C | 60% | 1018 hPa | 0 mm | - | - | - |
| 1777636396 | 21.11° C | 59% | 1018 hPa | 0 mm | - | - | - |
| 1777636103 | 21.11° C | 57% | 1018 hPa | 0 mm | - | - | - |
| 1777636066 | 21.11° C | 57% | 1018 hPa | 0 mm | - | - | - |
| 1777635770 | 21.11° C | 60% | 1018 hPa | 0 mm | - | - | - |
| 1777635736 | 21.11° C | 60% | 1018 hPa | 0 mm | - | - | - |
| 1777635436 | 21.11° C | 58% | 1018 hPa | 0 mm | - | - | - |
| 1777635185 | 20.56° C | 54% | 1018 hPa | 0 mm | - | - | - |
| 1777635136 | 20.56° C | 54% | 1018 hPa | 0 mm | - | - | - |
| 1777634806 | 21.67° C | 54% | 1018 hPa | 0 mm | - | - | - |
| 1777634506 | 21.67° C | 60% | 1018 hPa | 0 mm | - | - | - |
| 1777634176 | 21.67° C | 59% | 1018 hPa | 0 mm | - | - | - |
| 1777633846 | 21.11° C | 62% | 1018 hPa | 0 mm | - | - | - |
| 1777633516 | 21.11° C | 57% | 1018 hPa | 0 mm | - | - | - |
| 1777633186 | 20.56° C | 64% | 1018 hPa | 0 mm | - | - | - |
| 1777632856 | 20.56° C | 63% | 1018 hPa | 0 mm | - | - | - |
| 1777632556 | 20.56° C | 65% | 1018 hPa | 0 mm | - | - | - |
| 1777632256 | 20.56° C | 66% | 1018 hPa | 0 mm | - | - | - |
| 1777631956 | 19.44° C | 64% | 1018 hPa | 0 mm | - | - | - |
* Rain latest hour (hover to see other rain measurements)
** Current wind speed in m/s (hover to see current wind gust speed)